Location: Golden Pond Observatory
(36.7773°N, 88.0631°W)
Time: 02:01:46
(UTC-06:00)

Hubble Space Telescope - Pass Details

Date: 25 November 2019
Orbit: 536 x 540 km, 28.5° (Epoch: 12 December)

Event Time Altitude Azimuth Distance (km) Brightness Sun altitude
Rises 19:00:55 0° 256° (WSW) 2,669 5.5 -28.3°
Reaches altitude 10° 19:03:51 10° 235° (SW) 1,778 4.1 -28.9°
Enters shadow 19:05:48 16° 207° (SSW) 1,454 3.3 -29.3°
